START_TIME,STEP,MOV.,A39,t_acc.,A33,t_acc.,P32,t_acc.,P31,t_acc.
1979-07-12 03:00:23.110 ,1,0,6.,0.8,1.,0.8,1.,0.8,0.,0.8
1979-07-12 03:00:23.910 ,1,0,11.,0.8,1.,0.8,5.,0.8,0.,0.8
1979-07-12 03:00:24.710 ,1,0,11.,0.8,1.,0.8,2.,0.8,0.,0.8
1979-07-12 03:00:25.510 ,1,0,7.,0.8,0.,0.8,0.,0.8,0.,0.8
1979-07-12 03:00:26.310 ,1,0,6.,0.8,1.,0.8,1.,0.8,0.,0.8
1979-07-12 03:00:27.110 ,1,0,11.,0.8,0.,0.8,2.,0.8,0.,0.8
1979-07-12 03:00:27.910 ,1,0,9.,0.8,1.,0.8,0.,0.8,0.,0.8
1979-07-12 03:00:28.710 ,1,0,12.,0.8,1.,0.8,3.,0.8,0.,0.8
1979-07-12 03:00:29.510 ,1,0,11.,0.8,1.,0.8,1.,0.8,0.,0.8
1979-07-12 03:00:30.310 ,1,0,8.,0.8,1.,0.8,1.,0.8,0.,0.8
1979-07-12 03:00:31.110 ,1,0,7.,0.8,0.,0.8,0.,0.8,0.,0.8
1979-07-12 03:00:31.910 ,1,0,9.,0.8,0.,0.8,2.,0.8,0.,0.8
1979-07-12 03:00:32.710 ,1,0,6.,0.8,0.,0.8,0.,0.8,0.,0.8
1979-07-12 03:00:33.510 ,1,0,9.,0.8,1.,0.8,1.,0.8,0.,0.8
1979-07-12 03:00:34.310 ,1,0,5.,0.8,0.,0.8,0.,0.8,0.,0.8
1979-07-12 03:00:35.110 ,1,0,7.,0.8,0.,0.8,1.,0.8,0.,0.8
1979-07-12 03:00:35.910 ,1,0,2.,0.8,0.,0.8,0.,0.8,0.,0.8
1979-07-12 03:00:36.710 ,1,0,8.,0.8,1.,0.8,1.,0.8,0.,0.8
1979-07-12 03:00:37.510 ,1,0,6.,0.8,0.,0.8,3.,0.8,0.,0.8
1979-07-12 03:00:38.310 ,1,0,6.,0.8,1.,0.8,1.,0.8,0.,0.8
1979-07-12 03:00:39.110 ,1,0,9.,0.8,0.,0.8,2.,0.8,0.,0.8
1979-07-12 03:00:39.910 ,1,0,10.,0.8,0.,0.8,1.,0.8,0.,0.8
1979-07-12 03:00:40.710 ,1,0,4.,0.8,0.,0.8,1.,0.8,0.,0.8
1979-07-12 03:00:41.510 ,1,0,9.,0.8,0.,0.8,0.,0.8,0.,0.8
1979-07-12 03:00:42.310 ,1,0,7.,0.8,0.,0.8,0.,0.8,0.,0.8
1979-07-12 03:00:43.110 ,1,0,7.,0.8,1.,0.8,2.,0.8,0.,0.8
1979-07-12 03:00:43.910 ,1,0,9.,0.8,2.,0.8,1.,0.8,0.,0.8
1979-07-12 03:00:44.710 ,1,0,12.,0.8,1.,0.8,1.,0.8,0.,0.8
1979-07-12 03:00:45.510 ,1,0,4.,0.8,0.,0.8,0.,0.8,0.,0.8
1979-07-12 03:00:46.310 ,1,0,16.,0.8,0.,0.8,1.,0.8,0.,0.8
1979-07-12 03:00:47.100 ,2,0,8.,0.8,1.,0.8,0.,0.8,0.,0.8
1979-07-12 03:00:47.900 ,2,0,9.,0.8,1.,0.8,0.,0.8,0.,0.8
1979-07-12 03:00:48.700 ,2,0,4.,0.8,0.,0.8,1.,0.8,0.,0.8
1979-07-12 03:00:49.510 ,2,0,9.,0.8,0.,0.8,1.,0.8,0.,0.8
1979-07-12 03:00:50.310 ,2,0,8.,0.8,0.,0.8,1.,0.8,0.,0.8
1979-07-12 03:00:51.100 ,2,0,9.,0.8,0.,0.8,2.,0.8,0.,0.8
1979-07-12 03:00:51.910 ,2,0,10.,0.8,1.,0.8,0.,0.8,0.,0.8
1979-07-12 03:00:52.710 ,2,0,7.,0.8,0.,0.8,0.,0.8,0.,0.8
1979-07-12 03:00:53.510 ,2,0,6.,0.8,1.,0.8,0.,0.8,0.,0.8
1979-07-12 03:00:54.310 ,2,0,9.,0.8,1.,0.8,2.,0.8,0.,0.8
1979-07-12 03:00:55.110 ,2,0,5.,0.8,0.,0.8,3.,0.8,0.,0.8
1979-07-12 03:00:55.910 ,2,0,9.,0.8,0.,0.8,3.,0.8,0.,0.8
1979-07-12 03:00:56.710 ,2,0,13.,0.8,0.,0.8,0.,0.8,0.,0.8
1979-07-12 03:00:57.510 ,2,0,9.,0.8,1.,0.8,3.,0.8,0.,0.8
1979-07-12 03:00:58.310 ,2,0,15.,0.8,0.,0.8,0.,0.8,0.,0.8
1979-07-12 03:00:59.110 ,2,0,10.,0.8,0.,0.8,3.,0.8,0.,0.8
1979-07-12 03:00:59.910 ,2,0,12.,0.8,1.,0.8,0.,0.8,0.,0.8
1979-07-12 03:01:00.710 ,2,0,3.,0.8,2.,0.8,0.,0.8,0.,0.8
1979-07-12 03:01:01.510 ,2,0,4.,0.8,0.,0.8,1.,0.8,0.,0.8
1979-07-12 03:01:02.310 ,2,0,6.,0.8,0.,0.8,0.,0.8,0.,0.8
1979-07-12 03:01:03.110 ,2,0,7.,0.8,1.,0.8,1.,0.8,0.,0.8
1979-07-12 03:01:03.910 ,2,0,7.,0.8,2.,0.8,2.,0.8,0.,0.8
1979-07-12 03:01:04.710 ,2,0,6.,0.8,0.,0.8,0.,0.8,0.,0.8
1979-07-12 03:01:05.510 ,2,0,10.,0.8,2.,0.8,1.,0.8,0.,0.8
1979-07-12 03:01:06.310 ,2,0,8.,0.8,0.,0.8,1.,0.8,0.,0.8
1979-07-12 03:01:07.110 ,2,0,11.,0.8,1.,0.8,0.,0.8,0.,0.8
1979-07-12 03:01:07.910 ,2,0,12.,0.8,0.,0.8,2.,0.8,0.,0.8
1979-07-12 03:01:08.710 ,2,0,5.,0.8,0.,0.8,1.,0.8,0.,0.8
1979-07-12 03:01:09.510 ,2,0,8.,0.8,0.,0.8,4.,0.8,0.,0.8
1979-07-12 03:01:10.310 ,2,0,14.,0.8,1.,0.8,2.,0.8,0.,0.8
1979-07-12 03:01:11.100 ,2,0,6.,0.8,1.,0.8,0.,0.8,0.,0.8
1979-07-12 03:01:11.900 ,2,0,7.,0.8,0.,0.8,4.,0.8,0.,0.8
1979-07-12 03:01:12.710 ,2,0,9.,0.8,1.,0.8,1.,0.8,0.,0.8
1979-07-12 03:01:13.500 ,2,0,6.,0.8,2.,0.8,2.,0.8,0.,0.8
1979-07-12 03:01:14.310 ,2,0,11.,0.8,1.,0.8,2.,0.8,0.,0.8
1979-07-12 03:01:15.110 ,2,0,6.,0.8,2.,0.8,2.,0.8,0.,0.8
1979-07-12 03:01:15.900 ,2,0,4.,0.8,1.,0.8,1.,0.8,0.,0.8
1979-07-12 03:01:16.710 ,2,0,7.,0.8,0.,0.8,3.,0.8,0.,0.8
1979-07-12 03:01:17.510 ,2,0,8.,0.8,0.,0.8,0.,0.8,0.,0.8
1979-07-12 03:01:18.310 ,2,0,6.,0.8,1.,0.8,1.,0.8,0.,0.8
1979-07-12 03:01:19.110 ,2,0,11.,0.8,0.,0.8,1.,0.8,0.,0.8
1979-07-12 03:01:19.910 ,2,0,7.,0.8,0.,0.8,4.,0.8,0.,0.8
1979-07-12 03:01:20.710 ,2,0,3.,0.8,2.,0.8,0.,0.8,0.,0.8
1979-07-12 03:01:21.510 ,2,0,5.,0.8,1.,0.8,3.,0.8,0.,0.8
1979-07-12 03:01:22.310 ,2,0,9.,0.8,0.,0.8,2.,0.8,0.,0.8
1979-07-12 03:01:23.110 ,2,0,6.,0.8,1.,0.8,1.,0.8,0.,0.8
1979-07-12 03:01:23.910 ,2,0,7.,0.8,0.,0.8,0.,0.8,0.,0.8
1979-07-12 03:01:24.710 ,2,0,17.,0.8,1.,0.8,2.,0.8,0.,0.8
1979-07-12 03:01:25.510 ,2,0,10.,0.8,1.,0.8,5.,0.8,0.,0.8
1979-07-12 03:01:26.310 ,2,0,6.,0.8,1.,0.8,2.,0.8,0.,0.8
1979-07-12 03:01:27.110 ,2,0,15.,0.8,1.,0.8,2.,0.8,0.,0.8
1979-07-12 03:01:27.910 ,2,0,6.,0.8,2.,0.8,0.,0.8,0.,0.8
1979-07-12 03:01:28.710 ,2,0,12.,0.8,1.,0.8,1.,0.8,0.,0.8
1979-07-12 03:01:29.510 ,2,0,4.,0.8,1.,0.8,0.,0.8,0.,0.8
1979-07-12 03:01:30.310 ,2,0,4.,0.8,0.,0.8,1.,0.8,0.,0.8
1979-07-12 03:01:31.110 ,2,0,9.,0.8,0.,0.8,1.,0.8,0.,0.8
1979-07-12 03:01:31.910 ,2,0,5.,0.8,5.,0.8,1.,0.8,0.,0.8
1979-07-12 03:01:32.710 ,2,0,9.,0.8,0.,0.8,2.,0.8,0.,0.8
1979-07-12 03:01:33.510 ,2,0,7.,0.8,0.,0.8,0.,0.8,0.,0.8
1979-07-12 03:01:34.310 ,2,0,12.,0.8,0.,0.8,2.,0.8,0.,0.8
1979-07-12 03:01:35.110 ,3,0,11.,0.8,0.,0.8,0.,0.8,0.,0.8
1979-07-12 03:01:35.900 ,3,0,8.,0.8,0.,0.8,1.,0.8,0.,0.8
1979-07-12 03:01:36.710 ,3,0,10.,0.8,1.,0.8,1.,0.8,0.,0.8
1979-07-12 03:01:37.500 ,3,0,10.,0.8,0.,0.8,1.,0.8,0.,0.8
1979-07-12 03:01:38.310 ,3,0,9.,0.8,0.,0.8,4.,0.8,0.,0.8
1979-07-12 03:01:39.100 ,3,0,11.,0.8,0.,0.8,0.,0.8,0.,0.8
1979-07-12 03:01:39.910 ,3,0,6.,0.8,3.,0.8,0.,0.8,0.,0.8
1979-07-12 03:01:40.710 ,3,0,12.,0.8,3.,0.8,1.,0.8,0.,0.8
1979-07-12 03:01:41.510 ,3,0,14.,0.8,0.,0.8,2.,0.8,0.,0.8
1979-07-12 03:01:42.310 ,3,0,10.,0.8,1.,0.8,0.,0.8,0.,0.8
1979-07-12 03:01:43.110 ,3,0,8.,0.8,1.,0.8,0.,0.8,0.,0.8
1979-07-12 03:01:43.900 ,3,0,10.,0.8,2.,0.8,2.,0.8,0.,0.8
1979-07-12 03:01:44.710 ,3,0,7.,0.8,2.,0.8,2.,0.8,0.,0.8
1979-07-12 03:01:45.510 ,3,0,10.,0.8,1.,0.8,0.,0.8,0.,0.8
1979-07-12 03:01:46.310 ,3,0,10.,0.8,0.,0.8,1.,0.8,0.,0.8
1979-07-12 03:01:47.110 ,3,0,11.,0.8,0.,0.8,0.,0.8,0.,0.8
1979-07-12 03:01:47.910 ,3,0,9.,0.8,1.,0.8,2.,0.8,0.,0.8
1979-07-12 03:01:48.710 ,3,0,8.,0.8,0.,0.8,3.,0.8,0.,0.8
1979-07-12 03:01:49.510 ,3,0,6.,0.8,1.,0.8,0.,0.8,0.,0.8
1979-07-12 03:01:50.310 ,3,0,12.,0.8,2.,0.8,2.,0.8,0.,0.8
1979-07-12 03:01:51.110 ,3,0,10.,0.8,1.,0.8,4.,0.8,0.,0.8
1979-07-12 03:01:51.910 ,3,0,10.,0.8,0.,0.8,2.,0.8,0.,0.8
1979-07-12 03:01:52.710 ,3,0,13.,0.8,3.,0.8,1.,0.8,0.,0.8
1979-07-12 03:01:53.510 ,3,0,10.,0.8,1.,0.8,2.,0.8,0.,0.8
1979-07-12 03:01:54.310 ,3,0,10.,0.8,0.,0.8,3.,0.8,0.,0.8
1979-07-12 03:01:55.110 ,3,0,13.,0.8,1.,0.8,1.,0.8,0.,0.8
1979-07-12 03:01:55.910 ,3,0,16.,0.8,1.,0.8,3.,0.8,0.,0.8
1979-07-12 03:01:56.710 ,3,0,13.,0.8,3.,0.8,4.,0.8,0.,0.8
1979-07-12 03:01:57.510 ,3,0,10.,0.8,1.,0.8,3.,0.8,0.,0.8
1979-07-12 03:01:58.310 ,3,0,7.,0.8,1.,0.8,3.,0.8,0.,0.8
1979-07-12 03:01:59.100 ,3,0,6.,0.8,0.,0.8,1.,0.8,0.,0.8
1979-07-12 03:01:59.900 ,3,0,8.,0.8,3.,0.8,2.,0.8,0.,0.8
1979-07-12 03:02:00.700 ,3,0,1.,0.8,2.,0.8,0.,0.8,0.,0.8
1979-07-12 03:02:01.510 ,3,0,8.,0.8,0.,0.8,1.,0.8,0.,0.8
1979-07-12 03:02:02.310 ,3,0,11.,0.8,0.,0.8,0.,0.8,0.,0.8
1979-07-12 03:02:03.110 ,3,0,10.,0.8,0.,0.8,1.,0.8,0.,0.8
1979-07-12 03:02:03.900 ,3,0,6.,0.8,0.,0.8,1.,0.8,0.,0.8
1979-07-12 03:02:04.710 ,3,0,4.,0.8,3.,0.8,1.,0.8,0.,0.8
1979-07-12 03:02:05.510 ,3,0,9.,0.8,2.,0.8,4.,0.8,0.,0.8
1979-07-12 03:02:06.310 ,3,0,9.,0.8,2.,0.8,0.,0.8,0.,0.8
1979-07-12 03:02:07.110 ,3,0,8.,0.8,1.,0.8,2.,0.8,0.,0.8
1979-07-12 03:02:07.910 ,3,0,9.,0.8,0.,0.8,2.,0.8,0.,0.8
1979-07-12 03:02:08.710 ,3,0,13.,0.8,1.,0.8,0.,0.8,0.,0.8
1979-07-12 03:02:09.510 ,3,0,8.,0.8,0.,0.8,0.,0.8,0.,0.8
1979-07-12 03:02:10.310 ,3,0,5.,0.8,1.,0.8,2.,0.8,0.,0.8
1979-07-12 03:02:11.100 ,3,0,11.,0.8,1.,0.8,2.,0.8,0.,0.8
1979-07-12 03:02:11.910 ,3,0,12.,0.8,0.,0.8,0.,0.8,0.,0.8
1979-07-12 03:02:12.710 ,3,0,8.,0.8,1.,0.8,2.,0.8,0.,0.8
1979-07-12 03:02:13.510 ,3,0,5.,0.8,1.,0.8,0.,0.8,0.,0.8
1979-07-12 03:02:14.310 ,3,0,3.,0.8,2.,0.8,2.,0.8,0.,0.8
1979-07-12 03:02:15.110 ,3,0,9.,0.8,2.,0.8,0.,0.8,0.,0.8
1979-07-12 03:02:15.900 ,3,0,14.,0.8,0.,0.8,2.,0.8,0.,0.8
1979-07-12 03:02:16.710 ,3,0,11.,0.8,0.,0.8,2.,0.8,0.,0.8
1979-07-12 03:02:17.510 ,3,0,10.,0.8,0.,0.8,0.,0.8,0.,0.8
1979-07-12 03:02:18.310 ,3,0,16.,0.8,2.,0.8,1.,0.8,0.,0.8
1979-07-12 03:02:19.110 ,3,0,8.,0.8,4.,0.8,0.,0.8,0.,0.8
1979-07-12 03:02:19.910 ,3,0,9.,0.8,0.,0.8,1.,0.8,0.,0.8
1979-07-12 03:02:20.710 ,3,0,7.,0.8,0.,0.8,0.,0.8,0.,0.8
1979-07-12 03:02:21.510 ,3,0,5.,0.8,0.,0.8,0.,0.8,0.,0.8
1979-07-12 03:02:22.310 ,3,0,8.,0.8,0.,0.8,2.,0.8,0.,0.8
1979-07-12 03:02:23.100 ,4,0,8.,0.8,0.,0.8,0.,0.8,0.,0.8
1979-07-12 03:02:23.900 ,4,0,12.,0.8,1.,0.8,0.,0.8,0.,0.8
1979-07-12 03:02:24.710 ,4,0,10.,0.8,1.,0.8,1.,0.8,0.,0.8
1979-07-12 03:02:25.510 ,4,0,5.,0.8,0.,0.8,4.,0.8,0.,0.8
1979-07-12 03:02:26.300 ,4,0,12.,0.8,1.,0.8,4.,0.8,0.,0.8
1979-07-12 03:02:27.100 ,4,0,8.,0.8,1.,0.8,1.,0.8,0.,0.8
1979-07-12 03:02:27.900 ,4,0,9.,0.8,0.,0.8,2.,0.8,0.,0.8
1979-07-12 03:02:28.710 ,4,0,10.,0.8,2.,0.8,2.,0.8,0.,0.8
1979-07-12 03:02:29.510 ,4,0,11.,0.8,1.,0.8,2.,0.8,0.,0.8
1979-07-12 03:02:30.310 ,4,0,11.,0.8,4.,0.8,3.,0.8,0.,0.8
1979-07-12 03:02:31.100 ,4,0,10.,0.8,1.,0.8,1.,0.8,0.,0.8
1979-07-12 03:02:31.900 ,4,0,16.,0.8,0.,0.8,4.,0.8,0.,0.8
1979-07-12 03:02:32.710 ,4,0,9.,0.8,1.,0.8,0.,0.8,0.,0.8
1979-07-12 03:02:33.510 ,4,0,13.,0.8,1.,0.8,4.,0.8,0.,0.8
1979-07-12 03:02:34.310 ,4,0,16.,0.8,1.,0.8,0.,0.8,0.,0.8
1979-07-12 03:02:35.110 ,4,0,11.,0.8,1.,0.8,3.,0.8,0.,0.8
1979-07-12 03:02:35.900 ,4,0,8.,0.8,0.,0.8,0.,0.8,0.,0.8
1979-07-12 03:02:36.710 ,4,0,6.,0.8,0.,0.8,2.,0.8,0.,0.8
1979-07-12 03:02:37.510 ,4,0,10.,0.8,0.,0.8,4.,0.8,0.,0.8
1979-07-12 03:02:38.310 ,4,0,4.,0.8,2.,0.8,3.,0.8,0.,0.8
1979-07-12 03:02:39.110 ,4,0,12.,0.8,2.,0.8,1.,0.8,0.,0.8
1979-07-12 03:02:39.910 ,4,0,10.,0.8,1.,0.8,3.,0.8,0.,0.8
1979-07-12 03:02:40.710 ,4,0,8.,0.8,0.,0.8,4.,0.8,0.,0.8
1979-07-12 03:02:41.510 ,4,0,8.,0.8,0.,0.8,0.,0.8,0.,0.8
1979-07-12 03:02:42.310 ,4,0,11.,0.8,2.,0.8,1.,0.8,0.,0.8
1979-07-12 03:02:43.110 ,4,0,11.,0.8,1.,0.8,3.,0.8,0.,0.8
1979-07-12 03:02:43.910 ,4,0,6.,0.8,1.,0.8,3.,0.8,0.,0.8
1979-07-12 03:02:44.710 ,4,0,9.,0.8,3.,0.8,0.,0.8,0.,0.8
1979-07-12 03:02:45.510 ,4,0,13.,0.8,3.,0.8,1.,0.8,0.,0.8
1979-07-12 03:02:46.310 ,4,0,7.,0.8,3.,0.8,1.,0.8,0.,0.8
1979-07-12 03:02:47.100 ,4,0,15.,0.8,1.,0.8,1.,0.8,0.,0.8
1979-07-12 03:02:47.900 ,4,0,11.,0.8,0.,0.8,0.,0.8,0.,0.8
1979-07-12 03:02:48.710 ,4,0,12.,0.8,0.,0.8,1.,0.8,0.,0.8
1979-07-12 03:02:49.510 ,4,0,14.,0.8,1.,0.8,1.,0.8,0.,0.8
1979-07-12 03:02:50.300 ,4,0,8.,0.8,2.,0.8,1.,0.8,0.,0.8
1979-07-12 03:02:51.100 ,4,0,11.,0.8,2.,0.8,0.,0.8,0.,0.8
1979-07-12 03:02:51.900 ,4,0,15.,0.8,1.,0.8,3.,0.8,0.,0.8
1979-07-12 03:02:52.710 ,4,0,6.,0.8,0.,0.8,1.,0.8,0.,0.8
1979-07-12 03:02:53.510 ,4,0,13.,0.8,3.,0.8,1.,0.8,0.,0.8
1979-07-12 03:02:54.310 ,4,0,14.,0.8,1.,0.8,0.,0.8,0.,0.8
1979-07-12 03:02:55.100 ,4,0,11.,0.8,1.,0.8,1.,0.8,0.,0.8
1979-07-12 03:02:55.900 ,4,0,10.,0.8,1.,0.8,0.,0.8,0.,0.8
1979-07-12 03:02:56.710 ,4,0,12.,0.8,1.,0.8,0.,0.8,0.,0.8
1979-07-12 03:02:57.510 ,4,0,21.,0.8,1.,0.8,3.,0.8,0.,0.8
1979-07-12 03:02:58.310 ,4,0,16.,0.8,2.,0.8,1.,0.8,0.,0.8
1979-07-12 03:02:59.110 ,4,0,16.,0.8,3.,0.8,2.,0.8,0.,0.8
1979-07-12 03:02:59.910 ,4,0,8.,0.8,0.,0.8,0.,0.8,0.,0.8
1979-07-12 03:03:00.710 ,4,0,7.,0.8,1.,0.8,1.,0.8,0.,0.8
1979-07-12 03:03:01.510 ,4,0,8.,0.8,2.,0.8,0.,0.8,0.,0.8
1979-07-12 03:03:02.310 ,4,0,16.,0.8,0.,0.8,3.,0.8,0.,0.8
1979-07-12 03:03:03.110 ,4,0,10.,0.8,2.,0.8,1.,0.8,0.,0.8
1979-07-12 03:03:03.900 ,4,0,12.,0.8,0.,0.8,1.,0.8,0.,0.8
1979-07-12 03:03:04.710 ,4,0,9.,0.8,1.,0.8,1.,0.8,0.,0.8
1979-07-12 03:03:05.510 ,4,0,13.,0.8,2.,0.8,1.,0.8,0.,0.8
1979-07-12 03:03:06.310 ,4,0,9.,0.8,1.,0.8,3.,0.8,0.,0.8
1979-07-12 03:03:07.110 ,4,0,18.,0.8,2.,0.8,2.,0.8,0.,0.8
1979-07-12 03:03:07.900 ,4,0,11.,0.8,1.,0.8,2.,0.8,0.,0.8
1979-07-12 03:03:08.710 ,4,0,16.,0.8,0.,0.8,0.,0.8,0.,0.8
1979-07-12 03:03:09.510 ,4,0,13.,0.8,0.,0.8,3.,0.8,0.,0.8
1979-07-12 03:03:10.310 ,4,0,12.,0.8,0.,0.8,2.,0.8,0.,0.8
1979-07-12 03:03:11.100 ,5,0,14.,0.8,0.,0.8,3.,0.8,0.,0.8
1979-07-12 03:03:11.900 ,5,0,11.,0.8,1.,0.8,1.,0.8,0.,0.8
1979-07-12 03:03:12.710 ,5,0,12.,0.8,0.,0.8,3.,0.8,0.,0.8
1979-07-12 03:03:13.510 ,5,0,10.,0.8,2.,0.8,1.,0.8,0.,0.8
1979-07-12 03:03:14.310 ,5,0,14.,0.8,2.,0.8,1.,0.8,0.,0.8
1979-07-12 03:03:15.100 ,5,0,13.,0.8,1.,0.8,1.,0.8,0.,0.8
1979-07-12 03:03:15.900 ,5,0,18.,0.8,1.,0.8,5.,0.8,0.,0.8
1979-07-12 03:03:16.710 ,5,0,13.,0.8,0.,0.8,1.,0.8,0.,0.8
1979-07-12 03:03:17.510 ,5,0,13.,0.8,0.,0.8,0.,0.8,0.,0.8
1979-07-12 03:03:18.310 ,5,0,10.,0.8,2.,0.8,1.,0.8,0.,0.8
1979-07-12 03:03:19.100 ,5,0,15.,0.8,2.,0.8,1.,0.8,0.,0.8
1979-07-12 03:03:19.900 ,5,0,4.,0.8,0.,0.8,1.,0.8,0.,0.8
1979-07-12 03:03:20.710 ,5,0,14.,0.8,1.,0.8,2.,0.8,0.,0.8
1979-07-12 03:03:21.510 ,5,0,13.,0.8,2.,0.8,0.,0.8,0.,0.8
1979-07-12 03:03:22.310 ,5,0,21.,0.8,0.,0.8,0.,0.8,0.,0.8
1979-07-12 03:03:23.110 ,5,0,13.,0.8,0.,0.8,2.,0.8,0.,0.8
1979-07-12 03:03:23.900 ,5,0,12.,0.8,2.,0.8,1.,0.8,0.,0.8
1979-07-12 03:03:24.710 ,5,0,16.,0.8,0.,0.8,0.,0.8,0.,0.8
1979-07-12 03:03:25.510 ,5,0,15.,0.8,0.,0.8,3.,0.8,0.,0.8
1979-07-12 03:03:26.310 ,5,0,18.,0.8,2.,0.8,1.,0.8,0.,0.8
1979-07-12 03:03:27.110 ,5,0,11.,0.8,1.,0.8,3.,0.8,0.,0.8
1979-07-12 03:03:27.900 ,5,0,6.,0.8,0.,0.8,2.,0.8,0.,0.8
1979-07-12 03:03:28.710 ,5,0,13.,0.8,0.,0.8,1.,0.8,0.,0.8
1979-07-12 03:03:29.510 ,5,0,16.,0.8,1.,0.8,1.,0.8,0.,0.8
1979-07-12 03:03:30.310 ,5,0,16.,0.8,4.,0.8,1.,0.8,0.,0.8
1979-07-12 03:03:31.110 ,5,0,15.,0.8,0.,0.8,0.,0.8,0.,0.8
1979-07-12 03:03:31.910 ,5,0,12.,0.8,1.,0.8,0.,0.8,0.,0.8
1979-07-12 03:03:32.710 ,5,0,12.,0.8,0.,0.8,2.,0.8,0.,0.8
1979-07-12 03:03:33.510 ,5,0,14.,0.8,1.,0.8,2.,0.8,0.,0.8
1979-07-12 03:03:34.310 ,5,0,23.,0.8,1.,0.8,1.,0.8,0.,0.8
1979-07-12 03:03:35.100 ,5,0,20.,0.8,0.,0.8,1.,0.8,0.,0.8
1979-07-12 03:03:35.900 ,5,0,18.,0.8,1.,0.8,1.,0.8,0.,0.8
1979-07-12 03:03:36.710 ,5,0,19.,0.8,1.,0.8,1.,0.8,0.,0.8
1979-07-12 03:03:37.510 ,5,0,12.,0.8,2.,0.8,2.,0.8,0.,0.8
1979-07-12 03:03:38.300 ,5,0,13.,0.8,1.,0.8,2.,0.8,0.,0.8
1979-07-12 03:03:39.100 ,5,0,17.,0.8,3.,0.8,3.,0.8,0.,0.8
1979-07-12 03:03:39.900 ,5,0,16.,0.8,1.,0.8,1.,0.8,0.,0.8
1979-07-12 03:03:40.710 ,5,0,11.,0.8,1.,0.8,0.,0.8,0.,0.8
1979-07-12 03:03:41.510 ,5,0,7.,0.8,0.,0.8,1.,0.8,0.,0.8
1979-07-12 03:03:42.310 ,5,0,14.,0.8,1.,0.8,0.,0.8,0.,0.8
1979-07-12 03:03:43.100 ,5,0,16.,0.8,1.,0.8,0.,0.8,0.,0.8
1979-07-12 03:03:43.900 ,5,0,18.,0.8,0.,0.8,2.,0.8,0.,0.8
1979-07-12 03:03:44.710 ,5,0,14.,0.8,0.,0.8,1.,0.8,0.,0.8
1979-07-12 03:03:45.510 ,5,0,14.,0.8,1.,0.8,2.,0.8,0.,0.8
1979-07-12 03:03:46.310 ,5,0,23.,0.8,3.,0.8,0.,0.8,0.,0.8
1979-07-12 03:03:47.110 ,5,0,16.,0.8,1.,0.8,0.,0.8,0.,0.8
1979-07-12 03:03:47.900 ,5,0,13.,0.8,1.,0.8,1.,0.8,0.,0.8
1979-07-12 03:03:48.710 ,5,0,18.,0.8,0.,0.8,0.,0.8,0.,0.8
1979-07-12 03:03:49.510 ,5,0,16.,0.8,1.,0.8,1.,0.8,0.,0.8
1979-07-12 03:03:50.310 ,5,0,15.,0.8,2.,0.8,4.,0.8,0.,0.8
1979-07-12 03:03:51.110 ,5,0,11.,0.8,2.,0.8,1.,0.8,0.,0.8
1979-07-12 03:03:51.910 ,5,0,15.,0.8,0.,0.8,1.,0.8,0.,0.8
1979-07-12 03:03:52.710 ,5,0,13.,0.8,0.,0.8,3.,0.8,0.,0.8
1979-07-12 03:03:53.510 ,5,0,18.,0.8,1.,0.8,2.,0.8,0.,0.8
1979-07-12 03:03:54.310 ,5,0,18.,0.8,0.,0.8,0.,0.8,0.,0.8
1979-07-12 03:03:55.110 ,5,0,10.,0.8,1.,0.8,1.,0.8,0.,0.8
1979-07-12 03:03:55.910 ,5,0,16.,0.8,1.,0.8,2.,0.8,0.,0.8
1979-07-12 03:03:56.710 ,5,0,18.,0.8,0.,0.8,2.,0.8,0.,0.8
1979-07-12 03:03:57.510 ,5,0,23.,0.8,0.,0.8,0.,0.8,0.,0.8
1979-07-12 03:03:58.310 ,5,0,21.,0.8,3.,0.8,1.,0.8,0.,0.8
1979-07-12 03:03:59.100 ,6,0,9.,0.8,0.,0.8,0.,0.8,0.,0.8
1979-07-12 03:03:59.900 ,6,0,11.,0.8,2.,0.8,1.,0.8,0.,0.8
1979-07-12 03:04:00.710 ,6,0,18.,0.8,2.,0.8,1.,0.8,0.,0.8
1979-07-12 03:04:01.510 ,6,0,17.,0.8,0.,0.8,2.,0.8,0.,0.8
1979-07-12 03:04:02.310 ,6,0,13.,0.8,0.,0.8,0.,0.8,0.,0.8
1979-07-12 03:04:03.100 ,6,0,14.,0.8,1.,0.8,1.,0.8,0.,0.8
1979-07-12 03:04:03.900 ,6,0,16.,0.8,0.,0.8,1.,0.8,0.,0.8
1979-07-12 03:04:04.710 ,6,0,14.,0.8,0.,0.8,0.,0.8,0.,0.8
1979-07-12 03:04:05.510 ,6,0,20.,0.8,2.,0.8,3.,0.8,0.,0.8
1979-07-12 03:04:06.300 ,6,0,12.,0.8,0.,0.8,1.,0.8,0.,0.8
1979-07-12 03:04:07.110 ,6,0,8.,0.8,0.,0.8,1.,0.8,0.,0.8
1979-07-12 03:04:07.900 ,6,0,15.,0.8,1.,0.8,3.,0.8,0.,0.8
1979-07-12 03:04:08.710 ,6,0,16.,0.8,4.,0.8,1.,0.8,0.,0.8
1979-07-12 03:04:09.510 ,6,0,10.,0.8,0.,0.8,1.,0.8,0.,0.8
1979-07-12 03:04:10.310 ,6,0,8.,0.8,0.,0.8,1.,0.8,0.,0.8
1979-07-12 03:04:11.100 ,6,0,15.,0.8,1.,0.8,2.,0.8,0.,0.8
1979-07-12 03:04:11.910 ,6,0,13.,0.8,1.,0.8,2.,0.8,0.,0.8
1979-07-12 03:04:12.710 ,6,0,12.,0.8,0.,0.8,1.,0.8,0.,0.8
1979-07-12 03:04:13.510 ,6,0,8.,0.8,1.,0.8,3.,0.8,0.,0.8
1979-07-12 03:04:14.310 ,6,0,19.,0.8,0.,0.8,1.,0.8,0.,0.8
1979-07-12 03:04:15.110 ,6,0,10.,0.8,1.,0.8,0.,0.8,0.,0.8
1979-07-12 03:04:15.900 ,6,0,7.,0.8,1.,0.8,1.,0.8,0.,0.8
1979-07-12 03:04:16.710 ,6,0,10.,0.8,0.,0.8,1.,0.8,0.,0.8
1979-07-12 03:04:17.510 ,6,0,14.,0.8,0.,0.8,1.,0.8,0.,0.8
1979-07-12 03:04:18.310 ,6,0,16.,0.8,1.,0.8,2.,0.8,0.,0.8
1979-07-12 03:04:19.110 ,6,0,6.,0.8,0.,0.8,1.,0.8,0.,0.8
1979-07-12 03:04:19.900 ,6,0,14.,0.8,0.,0.8,0.,0.8,0.,0.8
1979-07-12 03:04:20.710 ,6,0,10.,0.8,1.,0.8,2.,0.8,0.,0.8
1979-07-12 03:04:21.510 ,6,0,13.,0.8,0.,0.8,0.,0.8,0.,0.8
1979-07-12 03:04:22.300 ,6,0,12.,0.8,0.,0.8,0.,0.8,0.,0.8
1979-07-12 03:04:23.110 ,6,0,13.,0.8,1.,0.8,1.,0.8,0.,0.8
1979-07-12 03:04:23.900 ,6,0,10.,0.8,1.,0.8,2.,0.8,0.,0.8
1979-07-12 03:04:24.700 ,6,0,11.,0.8,1.,0.8,2.,0.8,0.,0.8
1979-07-12 03:04:25.510 ,6,0,7.,0.8,0.,0.8,0.,0.8,0.,0.8
1979-07-12 03:04:26.300 ,6,0,17.,0.8,2.,0.8,0.,0.8,0.,0.8
1979-07-12 03:04:27.110 ,6,0,16.,0.8,0.,0.8,0.,0.8,0.,0.8
1979-07-12 03:04:27.900 ,6,0,21.,0.8,2.,0.8,2.,0.8,0.,0.8
1979-07-12 03:04:28.700 ,6,0,20.,0.8,2.,0.8,0.,0.8,0.,0.8
1979-07-12 03:04:29.510 ,6,0,17.,0.8,4.,0.8,0.,0.8,0.,0.8
1979-07-12 03:04:30.300 ,6,0,11.,0.8,0.,0.8,0.,0.8,0.,0.8
1979-07-12 03:04:31.110 ,6,0,20.,0.8,0.,0.8,0.,0.8,0.,0.8
1979-07-12 03:04:31.900 ,6,0,13.,0.8,0.,0.8,1.,0.8,0.,0.8
1979-07-12 03:04:32.710 ,6,0,5.,0.8,1.,0.8,1.,0.8,0.,0.8
1979-07-12 03:04:33.510 ,6,0,9.,0.8,0.,0.8,1.,0.8,0.,0.8
1979-07-12 03:04:34.300 ,6,0,18.,0.8,0.,0.8,1.,0.8,0.,0.8
1979-07-12 03:04:35.110 ,6,0,11.,0.8,0.,0.8,0.,0.8,0.,0.8
1979-07-12 03:04:35.900 ,6,0,13.,0.8,2.,0.8,0.,0.8,0.,0.8
1979-07-12 03:04:36.710 ,6,0,14.,0.8,2.,0.8,1.,0.8,0.,0.8
1979-07-12 03:04:37.510 ,6,0,8.,0.8,0.,0.8,3.,0.8,0.,0.8
1979-07-12 03:04:38.310 ,6,0,7.,0.8,1.,0.8,1.,0.8,0.,0.8
1979-07-12 03:04:39.110 ,6,0,8.,0.8,1.,0.8,2.,0.8,0.,0.8
1979-07-12 03:04:39.900 ,6,0,10.,0.8,4.,0.8,0.,0.8,0.,0.8
1979-07-12 03:04:40.710 ,6,0,19.,0.8,0.,0.8,1.,0.8,0.,0.8
1979-07-12 03:04:41.510 ,6,0,9.,0.8,1.,0.8,2.,0.8,0.,0.8
1979-07-12 03:04:42.300 ,6,0,6.,0.8,2.,0.8,1.,0.8,0.,0.8
1979-07-12 03:04:43.110 ,6,0,15.,0.8,1.,0.8,0.,0.8,0.,0.8
1979-07-12 03:04:43.900 ,6,0,8.,0.8,1.,0.8,0.,0.8,0.,0.8
1979-07-12 03:04:44.710 ,6,0,12.,0.8,1.,0.8,1.,0.8,0.,0.8
1979-07-12 03:04:45.510 ,6,0,13.,0.8,1.,0.8,0.,0.8,0.,0.8
1979-07-12 03:04:46.310 ,6,0,19.,0.8,1.,0.8,1.,0.8,0.,0.8
1979-07-12 03:04:47.110 ,7,0,13.,0.8,0.,0.8,4.,0.8,0.,0.8
1979-07-12 03:04:47.900 ,7,0,17.,0.8,1.,0.8,0.,0.8,0.,0.8
1979-07-12 03:04:48.700 ,7,0,8.,0.8,1.,0.8,2.,0.8,0.,0.8
1979-07-12 03:04:49.510 ,7,0,13.,0.8,1.,0.8,1.,0.8,0.,0.8
1979-07-12 03:04:50.300 ,7,0,12.,0.8,1.,0.8,0.,0.8,0.,0.8
1979-07-12 03:04:51.110 ,7,0,18.,0.8,0.,0.8,1.,0.8,0.,0.8
1979-07-12 03:04:51.900 ,7,0,9.,0.8,0.,0.8,0.,0.8,0.,0.8
1979-07-12 03:04:52.700 ,7,0,12.,0.8,0.,0.8,1.,0.8,0.,0.8
1979-07-12 03:04:53.510 ,7,0,5.,0.8,1.,0.8,0.,0.8,0.,0.8
1979-07-12 03:04:54.300 ,7,0,0.,0.8,0.,0.8,0.,0.8,0.,0.8
1979-07-12 03:04:55.110 ,7,0,0.,0.8,0.,0.8,0.,0.8,0.,0.8
1979-07-12 03:04:55.900 ,7,0,0.,0.8,0.,0.8,0.,0.8,0.,0.8
1979-07-12 03:04:56.710 ,7,0,0.,0.8,0.,0.8,0.,0.8,0.,0.8
1979-07-12 03:04:57.510 ,7,0,0.,0.8,0.,0.8,0.,0.8,0.,0.8
1979-07-12 03:04:58.300 ,7,0,0.,0.8,0.,0.8,0.,0.8,0.,0.8
1979-07-12 03:04:59.110 ,7,0,0.,0.8,0.,0.8,0.,0.8,0.,0.8
1979-07-12 03:04:59.900 ,7,0,0.,0.8,0.,0.8,0.,0.8,0.,0.8
1979-07-12 03:05:00.710 ,7,0,0.,0.8,0.,0.8,0.,0.8,0.,0.8
1979-07-12 03:05:01.510 ,7,0,0.,0.8,0.,0.8,0.,0.8,0.,0.8
1979-07-12 03:05:02.300 ,7,0,0.,0.8,0.,0.8,0.,0.8,0.,0.8
1979-07-12 03:05:03.110 ,7,0,0.,0.8,0.,0.8,0.,0.8,0.,0.8
1979-07-12 03:05:03.900 ,7,0,0.,0.8,0.,0.8,0.,0.8,0.,0.8
1979-07-12 03:05:04.710 ,7,0,0.,0.8,0.,0.8,0.,0.8,0.,0.8
1979-07-12 03:05:05.510 ,7,0,0.,0.8,0.,0.8,0.,0.8,0.,0.8
1979-07-12 03:05:06.300 ,7,0,0.,0.8,0.,0.8,0.,0.8,0.,0.8
1979-07-12 03:05:07.110 ,7,0,0.,0.8,0.,0.8,0.,0.8,0.,0.8
1979-07-12 03:05:07.900 ,7,0,0.,0.8,0.,0.8,0.,0.8,0.,0.8
1979-07-12 03:05:08.710 ,7,0,0.,0.8,0.,0.8,0.,0.8,0.,0.8
1979-07-12 03:05:09.510 ,7,0,0.,0.8,0.,0.8,0.,0.8,0.,0.8
1979-07-12 03:05:10.310 ,7,0,0.,0.8,0.,0.8,0.,0.8,0.,0.8
1979-07-12 03:05:11.110 ,7,0,0.,0.8,0.,0.8,0.,0.8,0.,0.8
1979-07-12 03:05:11.900 ,7,0,0.,0.8,0.,0.8,0.,0.8,0.,0.8
1979-07-12 03:05:12.700 ,7,0,0.,0.8,0.,0.8,0.,0.8,0.,0.8
1979-07-12 03:05:13.510 ,7,0,0.,0.8,0.,0.8,0.,0.8,0.,0.8
1979-07-12 03:05:14.300 ,7,0,0.,0.8,0.,0.8,0.,0.8,0.,0.8
1979-07-12 03:05:15.110 ,7,0,0.,0.8,0.,0.8,0.,0.8,0.,0.8
1979-07-12 03:05:15.900 ,7,0,0.,0.8,0.,0.8,0.,0.8,0.,0.8
1979-07-12 03:05:16.700 ,7,0,0.,0.8,0.,0.8,0.,0.8,0.,0.8
1979-07-12 03:05:17.510 ,7,0,0.,0.8,0.,0.8,0.,0.8,0.,0.8
1979-07-12 03:05:18.300 ,7,0,0.,0.8,0.,0.8,0.,0.8,0.,0.8
1979-07-12 03:05:19.110 ,7,0,0.,0.8,0.,0.8,0.,0.8,0.,0.8
1979-07-12 03:05:19.900 ,7,0,0.,0.8,0.,0.8,0.,0.8,0.,0.8
1979-07-12 03:05:20.710 ,7,0,0.,0.8,0.,0.8,0.,0.8,0.,0.8
1979-07-12 03:05:21.510 ,7,0,0.,0.8,0.,0.8,0.,0.8,0.,0.8
1979-07-12 03:05:22.300 ,7,0,0.,0.8,0.,0.8,0.,0.8,0.,0.8
1979-07-12 03:05:23.110 ,7,0,0.,0.8,0.,0.8,0.,0.8,0.,0.8
1979-07-12 03:05:23.900 ,7,0,0.,0.8,0.,0.8,0.,0.8,0.,0.8
1979-07-12 03:05:24.710 ,7,0,0.,0.8,0.,0.8,0.,0.8,0.,0.8
1979-07-12 03:05:25.510 ,7,0,0.,0.8,0.,0.8,0.,0.8,0.,0.8
1979-07-12 03:05:26.300 ,7,0,0.,0.8,0.,0.8,0.,0.8,0.,0.8
1979-07-12 03:05:27.110 ,7,0,0.,0.8,0.,0.8,0.,0.8,0.,0.8
1979-07-12 03:05:27.900 ,7,0,0.,0.8,0.,0.8,0.,0.8,0.,0.8
1979-07-12 03:05:28.710 ,7,0,0.,0.8,0.,0.8,0.,0.8,0.,0.8
1979-07-12 03:05:29.510 ,7,0,0.,0.8,0.,0.8,0.,0.8,0.,0.8
1979-07-12 03:05:30.300 ,7,0,0.,0.8,0.,0.8,0.,0.8,0.,0.8
1979-07-12 03:05:31.110 ,7,0,0.,0.8,0.,0.8,0.,0.8,0.,0.8
1979-07-12 03:05:31.900 ,7,0,0.,0.8,0.,0.8,0.,0.8,0.,0.8
1979-07-12 03:05:32.710 ,7,0,0.,0.8,0.,0.8,0.,0.8,0.,0.8
1979-07-12 03:05:33.510 ,7,0,0.,0.8,0.,0.8,0.,0.8,0.,0.8
1979-07-12 03:05:34.310 ,7,0,0.,0.8,0.,0.8,0.,0.8,0.,0.8
1979-07-12 03:05:35.100 ,7,0,0.,0.8,0.,0.8,0.,0.8,0.,0.8
1979-07-12 03:05:35.900 ,7,0,0.,0.8,0.,0.8,0.,0.8,0.,0.8
1979-07-12 03:05:36.700 ,7,0,0.,0.8,0.,0.8,0.,0.8,0.,0.8
1979-07-12 03:05:37.500 ,7,0,0.,0.8,0.,0.8,0.,0.8,0.,0.8
1979-07-12 03:05:38.300 ,7,0,0.,0.8,0.,0.8,0.,0.8,0.,0.8
1979-07-12 03:05:39.100 ,7,0,0.,0.8,0.,0.8,0.,0.8,0.,0.8
1979-07-12 03:05:39.900 ,7,0,0.,0.8,0.,0.8,0.,0.8,0.,0.8
1979-07-12 03:05:40.700 ,7,0,1.,0.8,0.,0.8,0.,0.8,0.,0.8
1979-07-12 03:05:41.500 ,7,0,0.,0.8,0.,0.8,0.,0.8,0.,0.8
1979-07-12 03:05:42.300 ,7,0,0.,0.8,0.,0.8,0.,0.8,0.,0.8
1979-07-12 03:05:43.100 ,7,0,0.,0.8,0.,0.8,0.,0.8,0.,0.8
1979-07-12 03:05:43.900 ,7,0,0.,0.8,0.,0.8,0.,0.8,0.,0.8
1979-07-12 03:05:44.700 ,7,0,1.,0.8,0.,0.8,0.,0.8,0.,0.8
1979-07-12 03:05:45.500 ,7,0,0.,0.8,0.,0.8,0.,0.8,0.,0.8
1979-07-12 03:05:46.300 ,7,0,0.,0.8,0.,0.8,0.,0.8,0.,0.8
1979-07-12 03:05:47.100 ,7,0,0.,0.8,0.,0.8,0.,0.8,0.,0.8
1979-07-12 03:05:47.900 ,7,0,0.,0.8,0.,0.8,0.,0.8,0.,0.8
1979-07-12 03:05:48.700 ,7,0,0.,0.8,0.,0.8,0.,0.8,0.,0.8
1979-07-12 03:05:49.500 ,7,0,0.,0.8,0.,0.8,0.,0.8,0.,0.8